Location: Aranbee
(34.0885°N, 118.2342°W)
Time: 17:05:41
(UTC+00:00)

A-11 Canister half - Pass Details

Date: 05 August 2021
Orbit: 1514 x 1685 km, 47.2° (Epoch: 17 September)

Event Time Altitude Azimuth Distance (km) Brightness Sun altitude
Rises 03:41:31 0° 297° (WNW) 4,852 14.0 -10.3°
Reaches altitude 10° 03:44:54 10° 304° (NW) 3,887 12.7 -11.0°
Maximum altitude 03:54:17 43° 14° (NNE) 2,227 10.0 -12.6°
Drops below altitude 10° 04:03:48 10° 83° (E) 3,948 10.7 -14.3°
Enters shadow 04:04:40 - 85° (E) 4,186 10.8 -14.5°
